Location: Munkebjergskolens Observatorium
(55.3864°N, 10.3987°E)
Time: 09:11:08
(UTC+02:00)

AAUSAT CUBESAT 2 - Visible Passes

Search period start: 01 April 2023 00:00
Search period end: 11 April 2023 00:00
Orbit: 557 x 563 km, 97.6° (Epoch: 31 March)

Date Brightness Start Highest point End Pass type
(mag) Time Alt. Az. Time Alt. Az. Time Alt. Az.
01 Apr ? 05:32:36 10° NNE 05:36:26 39° E 05:40:13 10° SSE visible
02 Apr ? 05:31:28 10° NNE 05:35:18 38° E 05:39:04 10° SSE visible
03 Apr ? 05:30:20 10° NNE 05:34:07 38° E 05:37:52 10° SSE visible
04 Apr ? 05:29:08 10° NNE 05:32:54 37° E 05:36:39 10° SSE visible
05 Apr ? 05:27:55 10° NNE 05:31:40 36° E 05:35:23 10° SSE visible
06 Apr ? 05:26:40 10° NNE 05:30:24 35° E 05:34:06 10° SSE visible
07 Apr ? 05:25:23 10° NNE 05:29:05 34° E 05:32:46 10° SSE visible
08 Apr ? 05:24:04 10° NNE 05:27:46 33° E 05:31:25 10° SSE visible
09 Apr ? 05:22:44 10° NNE 05:26:23 32° E 05:30:01 10° SSE visible
10 Apr ? 05:21:21 10° NNE 05:24:59 31° E 05:28:35 10° SSE visible
